Main page
METAR-TAF:

METAR-TAF

Airports :

Tarvisio, Italy

latitude: 46-30N, longitude: 013-35E, elevation: 777 m

Current weather observation

The report was made 1 hour and 22 minutes ago, at 17:55 UTC
Wind 3 kt from the Northeast
Temperature 13°C
Humidity 47%
Pressure 1025 hPa
Visibility 10 km or more
Few clouds at a height of 3500 ft

METAR: LIVO 181755Z 04003KT 9999 FEW035 13/02 Q1025 RMK FEW VIS MIN 9999

Time: 21:17 (19:17 UTC)


TAF: missing

Weather observations and forecasts of more than 4000 airports (METAR and TAF reports).

The available stations are represented by yellow and red dots on the map.

Hover mouse over dot to see the name of the station.

Then click to see weather observations and forecasts.

To change the map : click on the green buttons with a black cross to zoom in, on the green button with a dash to zoom out, or on the green arrows for adjacent maps.


METAR-TAF: